Find Starlink 38267

NORAD ID: 100301 Int'l Des: 2026-184 Owner: SPXS Country: US Constellation: starlink operational

当前视图

正在加载3D地球...

About Starlink 38267

Starlink 38267 (NORAD 100301) is a starlink constellation satellite launched Aug 12, 2026 by SPXS of US. with a mass of 575.00 kg.

即将过境

Passes for default location (London). Set your location on the main map for personalized predictions.

高度历史

Loading altitude history...

两行轨道根数

1 A0301U 26184A 26248.23706553 .00010331 00000-0 19126-3 0 9998
2 A0301 97.2853 113.4569 0002021 110.7186 249.4282 15.49202972 5016
Epoch: Sep 5, 2026 • Age: 9 hours

当前状态

高度 446.6 km
远地点 / 近地点 N/A
速度 7.64 km/s
星下点 -70.23°S, 70.41°W
发射日期 Aug 12, 2026
运行时间 24 days
类型 internet

技术详情

分类 Payload
质量 575.00 kg
干质量 530.00 kg
总质量 575.00 kg
长度 0.30 m
直径 4.10 m
跨度 29.00 m
形状 Box + pan
制造商 SPXS
平台类型 Starlink V2MO
阶段状态 In Orbit
所有者/国家 SPXS/US

Most Searched